Regional Weather Roundup
Issued by NWS

Home | Current Version | Previous Version | Graphics & Text | Print | Product List | Glossary On
Versions: 1 2 3 4 5 6 7 8 9 10 11 12 13 14 15 16 17 18 19 20 21 22 23 24 25 26 27 28 29 30 31 32 33 34 35 36 37 38 39 40 41 42 43 44 45 46 47 48 49 50
000
ASUS45 KABQ 241901
RWRNM
WEATHER ROUNDUP FOR NEW MEXICO
NATIONAL WEATHER SERVICE ALBUQUERQUE NM
100 PM MDT THU APR 24 2014

NOTE: "FAIR" MEANS FEW OR NO CLOUDS BELOW 12,000 FEET AGL WITH NO
       SIGNIFICANT WEATHER OR OBSTRUCTIONS TO VISION.

      THIS PRODUCT IS RELEASED AS TWO VERSIONS.  ONE VERSION NEAR
      THE TOP OF THE HOUR CONTAINING PRELIMINARY DATA FROM ALBUQUERQUE
      AND OTHER STATIONS.  A FINAL VERSION WITH ADDITIONAL DATA IS
      ISSUED ABOUT 10 MINUTES AFTER THE HOUR.

NMZ501-503-504-510>518-242000-
NORTHWEST PLATEAU/NORTHCENTRAL MOUNTAINS

CITY           SKY/WX    TMP DP  RH WIND       PRES   REMARKS
FARMINGTON     SUNNY     59   3  10 W8        30.12F
LOS ALAMOS     MOSUNNY   55   8  15 S7        30.16S
SANTA FE       PTSUNNY   60   4  10 SW10G17   30.12F
TAOS           MOSUNNY   55  12  18 S13G18    30.15F
ANGEL FIRE     FAIR      52   5  15 W20G29    30.14F

$$
NMZ402-403-502-505>509-242000-
WESTCENTRAL MOUNTAINS/SOUTHWEST MOUNTAINS

CITY           SKY/WX    TMP DP  RH WIND       PRES   REMARKS
GALLUP         MOSUNNY   59   9  13 MISG      30.15F
SILVER CITY    SUNNY     68   9  10 NW5       30.13F

$$
NMZ407-409-411-412-242000-
SOUTHERN DESERTS

CITY           SKY/WX    TMP DP  RH WIND       PRES   REMARKS
DEMING         SUNNY     74  10   8 VRB3      30.07F
LAS CRUCES     SUNNY     74  11   9 N3        30.08F
T OR C         SUNNY     71  11  10 E8G18     30.08F

$$
NMZ519>523-242000-
CENTRAL VALLEYS/CENTRAL HIGHLANDS

CITY           SKY/WX    TMP DP  RH WIND       PRES   REMARKS
ALBUQUERQUE    PTSUNNY   63   9  12 CALM      30.13F
DOUBLE EAGLE   PTSUNNY   61  12  15 S7        30.15F
CLINES CORNERS PTSUNNY   59   5  11 W18       30.13F
BELEN          FAIR      63  13  14 CALM      30.13F
SOCORRO        NOT AVBL

$$
NMZ524>526-539-540-242000-
SOUTHCENTRAL MOUNTAINS

CITY           SKY/WX    TMP DP  RH WIND       PRES   REMARKS
RUIDOSO        NOT AVBL

$$
NMZ527>531-242000-
NORTHEAST HIGHLANDS/NORTHEAST PLAINS

CITY           SKY/WX    TMP DP  RH WIND       PRES   REMARKS
LAS VEGAS      PTSUNNY   61  12  14 S18G26    30.08F
RATON          MOSUNNY   60  23  24 S10G20    30.05F
CLAYTON        SUNNY     62  17  17 SW8       30.03F

$$
NMZ532>537-242000-
EASTCENTRAL PLAINS

CITY           SKY/WX    TMP DP  RH WIND       PRES   REMARKS
TUCUMCARI      SUNNY     67  20  16 SW8       30.04F
CANNON AFB     NOT AVBL
CLOVIS AIRPORT SUNNY     66  25  20 NW8G18    30.09F

$$
NMZ028-029-538-242000-
SOUTHEAST PLAINS

CITY           SKY/WX    TMP DP  RH WIND       PRES   REMARKS
ROSWELL        SUNNY     70  26  19 NE8       30.06F
CARLSBAD       SUNNY     76  21  12 N12G17    30.05F
HOBBS          SUNNY     72  28  20 N12G20    30.07F


$$



USA.gov is the U.S. government's official web portal to all federal, state and local government web resources and services.